Stadskanaal Airfield

EHST · Groningue, Pays-Bas

3 octobre 2022

Temps Code Temps Temp. Vue Base cloud Vent METAR/SPECI
02:55
V
10 °C 10 km+ 4.000 ft 250° 250° 5 kt METAR EHGG 030055Z AUTO 25005KT 9999 OVC040 10/09 Q1023
02:25
V
9 °C 10 km+ 4.200 ft 250° 250° 5 kt METAR EHGG 030025Z AUTO 25005KT 9999 OVC042/// 09/08 Q1023
01:55
V
8 °C 10 km+ - 250° 250° 5 kt METAR EHGG 022355Z AUTO 25005KT 9999 NCD 08/08 Q1023
01:25
V
9 °C 10 km+ - 260° 260° 5 kt METAR EHGG 022325Z AUTO 26005KT 9999 NCD 09/08 Q1023
00:55
V
9 °C 10 km+ - 260° 260° 6 kt METAR EHGG 022255Z AUTO 26006KT 9999 NCD 09/09 Q1023
00:25
V
9 °C 10 km+ - 250° 250° 6 kt METAR EHGG 022225Z AUTO 25006KT 9999 NCD 09/08 Q1023

2 octobre 2022

Temps Code Temps Temp. Vue Base cloud Vent METAR/SPECI
23:55
V
9 °C 10 km+ - 250° 250° 5 kt METAR EHGG 022155Z AUTO 25005KT 9999 NCD 09/08 Q1022
23:25
V
10 °C 10 km+ - 260° 260° 5 kt METAR EHGG 022125Z AUTO 26005KT 9999 NCD 10/09 Q1022
22:55
V
11 °C 10 km+ - 270° 270° 5 kt METAR EHGG 022055Z AUTO 27005KT 250V310 9999 NCD 11/09 Q1021 NOSIG
22:25
V
11 °C 10 km+ - 270° 270° 5 kt METAR EHGG 022025Z AUTO 27005KT 240V300 9999 FEW027 11/09 Q1021 NOSIG
21:55
V
11 °C 10 km+ - 260° 260° 5 kt METAR EHGG 021955Z AUTO 26005KT 230V300 9999 FEW023 11/09 Q1021 NOSIG
21:25
V
12 °C 10 km+ 3.900 ft 270° 270° 5 kt METAR EHGG 021925Z AUTO 27005KT 240V310 9999 FEW033 BKN039 OVC045 12/10 Q1021 NOSIG
20:55
V
12 °C 10 km+ - 270° 270° 5 kt METAR EHGG 021855Z AUTO 27005KT 230V300 9999 FEW047 12/10 Q1021 NOSIG
20:25
V
12 °C 10 km+ 4.200 ft 270° 270° 5 kt METAR EHGG 021825Z AUTO 27005KT 230V300 9999 BKN042 12/10 Q1020 NOSIG
19:55
V
13 °C 10 km+ - 280° 280° 7 kt METAR EHGG 021755Z AUTO 28007KT 240V320 9999 FEW043 13/10 Q1020 NOSIG
19:25
V
13 °C 10 km+ - 290° 290° 6 kt METAR EHGG 021725Z AUTO 29006KT 250V310 9999 FEW032 SCT039 13/10 Q1019 NOSIG
18:55
M
14 °C 10 km+ 2.300 ft 300° 300° 7 kt METAR EHGG 021655Z AUTO 30007KT 260V350 9999 BKN023 BKN027 BKN041 14/10 Q1019 NOSIG
18:25
V
15 °C 10 km+ 4.200 ft 310° 310° 8 kt METAR EHGG 021625Z AUTO 31008KT 270V330 9999 DZRA FEW023 SCT026 BKN042 15/11 Q1019 NOSIG
17:55
M
15 °C 10 km+ 2.400 ft 300° 300° 9 kt METAR EHGG 021555Z AUTO 30009KT 250V340 9999 BKN024 BKN040 15/10 Q1018 NOSIG
17:25
V
16 °C 10 km+ 4.600 ft 280° 280° 11 kt METAR EHGG 021525Z AUTO 28011KT 250V320 9999 FEW042 BKN046 16/10 Q1018 NOSIG
16:55
V
16 °C 10 km+ - 290° 290° 11 kt METAR EHGG 021455Z AUTO 29011KT 260V320 9999 NSC 16/10 Q1017 NOSIG
16:25
V
17 °C 10 km+ 4.200 ft 310° 310° 11 kt METAR EHGG 021425Z AUTO 31011KT 250V360 9999 FEW029 SCT035 BKN042 17/10 Q1017 NOSIG
15:55
V
17 °C 10 km+ - 320° 320° 11 kt METAR EHGG 021355Z AUTO 32011KT 270V010 9999 NSC 17/10 Q1017 NOSIG
15:25
V
16 °C 10 km+ - 280° 280° 12 kt METAR EHGG 021325Z AUTO 28012KT 240V310 9999 NCD 16/09 Q1017 NOSIG
14:55
V
17 °C 10 km+ - 290° 290° 12 kt METAR EHGG 021255Z AUTO 29012KT 230V330 9999 FEW035 17/10 Q1016 NOSIG
14:25
V
18 °C 10 km+ - 300° 300° 15 kt METAR EHGG 021225Z AUTO 30015KT 260V330 9999 FEW031 SCT043 18/10 Q1016 NOSIG
13:55
V
17 °C 10 km+ - 290° 290° 13 kt METAR EHGG 021155Z AUTO 29013KT 260V320 9999 FEW031 17/09 Q1016 NOSIG
13:25
V
17 °C 10 km+ - 290° 290° 11 kt METAR EHGG 021125Z AUTO 29011KT 240V330 9999 NCD 17/10 Q1015 NOSIG
12:55
V
17 °C 10 km+ - 300° 300° 12 kt METAR EHGG 021055Z AUTO 30012KT 260V010 9999 FEW024 17/11 Q1015 NOSIG
12:25
V
16 °C 10 km+ - 270° 270° 7 kt METAR EHGG 021025Z AUTO 27007KT 230V320 9999 NCD 16/12 Q1015 NOSIG
11:55
V
15 °C 10 km+ 4.600 ft 260° 260° 7 kt METAR EHGG 020955Z AUTO 26007KT 230V290 9999 FEW026 SCT030 BKN046 15/12 Q1015 NOSIG
11:25
V
15 °C 10 km+ - 270° 270° 7 kt METAR EHGG 020925Z AUTO 27007KT 230V310 9999 SCT038 15/13 Q1014 NOSIG
10:55
V
13 °C 10 km+ - 250° 250° 5 kt METAR EHGG 020855Z AUTO 25005KT 230V290 9999 -RA FEW015CB 13/12 Q1014 TEMPO 7000 SHRA FEW020CB
10:25
V
12 °C 10 km+ 3.100 ft 240° 240° 5 kt METAR EHGG 020825Z AUTO 24005KT 220V280 9999 -RA FEW015CB BKN031 BKN035 12/11 Q1014 RERA TEMPO 7000 SHRA FEW020CB
09:55
V
13 °C 10 km+ 3.600 ft 300° 300° 4 kt METAR EHGG 020755Z AUTO 30004KT 260V340 9999 SCT029 BKN036 OVC041 13/11 Q1013 TEMPO 7000 -SHRA FEW020CB
09:25
V
13 °C 10 km+ - 240° 240° 8 kt METAR EHGG 020725Z AUTO 24008KT 200V280 9999 NSC 13/11 Q1013 TEMPO 7000 -SHRA FEW020CB
08:55
V
12 °C 10 km+ - 230° 230° 8 kt METAR EHGG 020655Z AUTO 23008KT 9999 NSC 12/11 Q1013 TEMPO 7000 -SHRA FEW020CB
08:25
V
9 °C 10 km+ - 230° 230° 7 kt METAR EHGG 020625Z AUTO 23007KT 9999 NCD 09/09 Q1012 TEMPO 7000 -SHRA FEW020CB
07:55
V
8 °C 10 km+ - 230° 230° 7 kt METAR EHGG 020555Z AUTO 23007KT 9999 NCD 08/08 Q1012 TEMPO 7000 -SHRA FEW020CB
07:25
V
10 °C 10 km+ - 230° 230° 7 kt METAR EHGG 020525Z AUTO 23007KT 9999 NCD 10/09 Q1012 TEMPO 7000 -SHRA FEW020CB
06:55
V
10 °C 10 km+ - 230° 230° 9 kt METAR EHGG 020455Z AUTO 23009KT 9999 NCD 10/09 Q1011 TEMPO 7000 -SHRA FEW020CB
06:25
V
10 °C 10 km+ - 230° 230° 9 kt METAR EHGG 020425Z AUTO 23009KT 9999 NCD 10/09 Q1011 TEMPO 7000 -SHRA FEW020CB
05:55
V
11 °C 10 km+ - 230° 230° 9 kt METAR EHGG 020355Z AUTO 23009KT 9999 FEW030 SCT034 11/10 Q1011
05:25
V
11 °C 10 km+ 3.900 ft 230° 230° 9 kt METAR EHGG 020325Z AUTO 23009KT 9999 FEW030 SCT035 BKN039 11/10 Q1011
04:55
V
11 °C 10 km+ 3.900 ft 230° 230° 8 kt METAR EHGG 020255Z AUTO 23008KT 9999 FEW028 SCT031 BKN039 11/10 Q1011
04:25
V
11 °C 10 km+ - 210° 210° 9 kt METAR EHGG 020225Z AUTO 21009KT 170V230 9999 NSC 11/10 Q1011
03:55
V
9 °C 10 km+ - 230° 230° 7 kt METAR EHGG 020155Z AUTO 23007KT 9999 SCT029 09/09 Q1011
03:25
V
9 °C 10 km+ - 230° 230° 8 kt METAR EHGG 020125Z AUTO 23008KT 9999 NCD 09/09 Q1011
02:55
V
9 °C 10 km+ - 220° 220° 6 kt METAR EHGG 020055Z AUTO 22006KT 9999 NCD 09/09 Q1010
02:25
M
11 °C 10 km+ 2.900 ft Var Var 4 kt METAR EHGG 020025Z AUTO VRB04KT 9999 FEW015CB BKN029 BKN035 BKN046 11/11 Q1011
01:55
V
11 °C 10 km+ - 200° 200° 7 kt METAR EHGG 012355Z AUTO 20007KT 9999 TS FEW015CB 11/10 Q1010 REDZ
01:25
V
12 °C 10 km+ 3.500 ft 250° 250° 6 kt METAR EHGG 012325Z AUTO 25006KT 220V280 9999 -RA FEW015CB BKN035 OVC040 12/11 Q1010
00:55
V
12 °C 10 km+ - 220° 220° 10 kt METAR EHGG 012255Z AUTO 22010KT 9999 FEW017 12/10 Q1010
00:25
V
13 °C 10 km+ - 300° 300° 13 kt METAR EHGG 012225Z AUTO 30013KT 260V340 9999 -RA FEW011 SCT014 FEW015CB 13/11 Q1010 RETS

1 octobre 2022

Temps Code Temps Temp. Vue Base cloud Vent METAR/SPECI
23:55
V
11 °C 10 km+ - 230° 230° 8 kt METAR EHGG 012155Z AUTO 23008KT 9999 TS FEW015CB 11/09 Q1009
23:25
V
12 °C 10 km+ - 250° 250° 9 kt METAR EHGG 012125Z AUTO 25009KT 210V280 9999 FEW015CB 12/10 Q1009
22:55
V
11 °C 10 km+ - 220° 220° 8 kt METAR EHGG 012055Z AUTO 22008KT 9999 FEW015CB SCT039 11/10 Q1009 TEMPO 7000 SHRA SCT020CB
22:25
V
10 °C 10 km+ - 220° 220° 6 kt METAR EHGG 012025Z AUTO 22006KT 9999 FEW039 10/09 Q1009 NOSIG
21:55
V
10 °C 10 km+ - 220° 220° 8 kt METAR EHGG 011955Z AUTO 22008KT 9999 NSC 10/09 Q1008 NOSIG
21:25
V
10 °C 10 km+ - 230° 230° 8 kt METAR EHGG 011925Z AUTO 23008KT 9999 NCD 10/09 Q1008 NOSIG
20:55
V
11 °C 10 km+ - 230° 230° 7 kt METAR EHGG 011855Z AUTO 23007KT 9999 NCD 11/09 Q1008 NOSIG
20:25
V
12 °C 10 km+ - 240° 240° 8 kt METAR EHGG 011825Z AUTO 24008KT 210V270 9999 FEW029 12/09 Q1007 NOSIG
19:55
V
13 °C 10 km+ - 240° 240° 9 kt METAR EHGG 011755Z AUTO 24009KT 9999 NCD 13/10 Q1007 NOSIG
19:25
V
13 °C 10 km+ - 250° 250° 7 kt METAR EHGG 011725Z AUTO 25007KT 230V290 9999 NCD 13/10 Q1006 NOSIG
18:55
V
14 °C 10 km+ - 260° 260° 10 kt METAR EHGG 011655Z AUTO 26010KT 230V290 9999 NCD 14/10 Q1006 NOSIG
18:25
V
15 °C 10 km+ - 270° 270° 12 kt METAR EHGG 011625Z AUTO 27012KT 220V310 9999 NSC 15/10 Q1005 NOSIG
17:55
V
15 °C 10 km+ - 270° 270° 9 kt METAR EHGG 011555Z AUTO 27009KT 230V300 9999 SCT028 SCT035 15/11 Q1005 TEMPO 7000 SHRA FEW020CB
17:25
V
15 °C 10 km+ - 280° 280° 7 kt METAR EHGG 011525Z AUTO 28007KT 260V350 9999 NCD 15/11 Q1005 TEMPO 7000 SHRA FEW020CB
16:55
V
14 °C 10 km+ 3.200 ft 300° 300° 7 kt METAR EHGG 011455Z AUTO 30007KT 260V340 9999 -RA FEW024 SCT027 BKN032 14/11 Q1004 TEMPO 7000 SHRA FEW020CB
16:25
M
14 °C 10 km+ 2.300 ft 300° 300° 10 kt METAR EHGG 011425Z AUTO 30010KT 260V350 9999 -RA FEW015CB BKN023 BKN027 BKN031 14/11 Q1004 TEMPO 7000 SHRA FEW020CB
15:55
V
16 °C 10 km+ - 270° 270° 9 - 19 kt METAR EHGG 011355Z AUTO 27009G19KT 220V330 9999 FEW015CB 16/12 Q1003 RERA TEMPO 7000 SHRA FEW020CB
15:25
I
13 °C 2 km 2.700 ft 290° 290° 13 kt METAR EHGG 011325Z AUTO 29013KT 240V340 2000 +RA FEW015CB SCT023 BKN027 13/10 Q1003 TEMPO 7000 SHRA FEW020CB
14:55
M
16 °C 10 km+ 2.400 ft 280° 280° 12 kt METAR EHGG 011255Z AUTO 28012KT 240V330 9999 SCT020 BKN024 BKN028 16/11 Q1002 TEMPO 7000 SHRA FEW020CB
14:25
M
16 °C 10 km+ 2.700 ft 270° 270° 10 kt METAR EHGG 011225Z AUTO 27010KT 230V310 9999 -RA FEW015CB SCT022 BKN027 16/12 Q1002 TEMPO 7000 SHRA FEW020CB
13:55
M
16 °C 10 km+ 2.100 ft 260° 260° 9 kt METAR EHGG 011155Z AUTO 26009KT 220V300 9999 SCT015 SCT018 BKN021 16/13 Q1002 TEMPO 7000 SHRA FEW020CB
13:25
V
14 °C 10 km+ - 250° 250° 9 kt METAR EHGG 011125Z AUTO 25009KT 200V270 9999 -RA FEW008 SCT012 FEW015CB 14/13 Q1002 TEMPO 7000 SHRA FEW020CB
12:55
V
13 °C 10 km+ 3.200 ft 260° 260° 7 kt METAR EHGG 011055Z AUTO 26007KT 210V300 9999 SCT015CB BKN032 13/12 Q1001 RERA TEMPO 7000 SHRA FEW020CB
12:25
I
12 °C 2,2 km 1.600 ft 280° 280° 11 - 26 kt METAR EHGG 011025Z AUTO 28011G26KT 240V330 2200 +SHRA SCT013 SCT015CB BKN016 OVC019 12/11 Q1001 TEMPO 4000 TSRA FEW020CB
11:55
V
15 °C 10 km+ - 240° 240° 11 kt METAR EHGG 010955Z AUTO 24011KT 220V280 9999 FEW044 15/12 Q1000 TEMPO 7000 SHRA FEW020CB
11:25
M
16 °C 10 km+ 1.400 ft 240° 240° 11 kt METAR EHGG 010925Z AUTO 24011KT 9999 SCT011 BKN014 BKN017 16/13 Q1000 TEMPO 7000 SHRA FEW020CB
10:55
V
16 °C 10 km+ - 240° 240° 11 kt METAR EHGG 010855Z AUTO 24011KT 200V270 9999 FEW028 16/14 Q0999 TEMPO 7000 SHRA FEW020CB
10:25
V
14 °C 10 km+ - 230° 230° 12 kt METAR EHGG 010825Z AUTO 23012KT 200V260 9999 SCT023 14/13 Q0999 NOSIG
09:55
V
14 °C 10 km+ - 230° 230° 10 kt METAR EHGG 010755Z AUTO 23010KT 9999 NCD 14/13 Q0999 TEMPO 7000 SHRA FEW020CB BECMG BKN018
09:25
M
13 °C 10 km+ 1.300 ft 230° 230° 10 kt METAR EHGG 010725Z AUTO 23010KT 9999 FEW006 SCT007 BKN013 FEW015CB 13/13 Q0998 TEMPO 7000 SHRA FEW020CB BECMG BKN018
08:55
M
13 °C 10 km+ 1.500 ft 230° 230° 9 kt METAR EHGG 010655Z AUTO 23009KT 9999 FEW001 SCT006 BKN015 13/12 Q0998 TEMPO 7000 SHRA FEW020CB BECMG SCT018
08:25
M
12 °C 10 km+ 1.600 ft 220° 220° 11 kt METAR EHGG 010625Z AUTO 22011KT 190V250 9999 FEW009 BKN016 BKN019 12/11 Q0998 RERADZ TEMPO 7000 SHRA FEW020CB
07:55
I
12 °C 10 km+ 900 ft 210° 210° 11 kt METAR EHGG 010555Z AUTO 21011KT 180V240 9999 -RA FEW006 SCT007 BKN009 12/11 Q0997 BECMG BKN015
07:25
I
12 °C 10 km+ 800 ft 210° 210° 14 kt METAR EHGG 010525Z AUTO 21014KT 9999 SCT007/// BKN008/// OVC009/// 12/11 Q0997 BECMG BKN015
06:55
I
11 °C 10 km+ 900 ft 200° 200° 16 kt METAR EHGG 010455Z AUTO 20016KT 170V230 9999 FEW007 SCT008 BKN009 11/10 Q0997 TEMPO 8000
06:25
M
11 °C 6 km 1.000 ft 200° 200° 17 kt METAR EHGG 010425Z AUTO 20017KT 170V240 6000 -SHRA FEW007 SCT009 BKN010 11/10 Q0997 REDZ BECMG RADZ BKN008 TEMPO 8000
05:55
M
11 °C 10 km+ 1.200 ft 190° 190° 15 kt METAR EHGG 010355Z AUTO 19015KT 160V230 9999 -RA FEW008 SCT010 BKN012 11/10 Q0997 REDZRA
05:25
M
11 °C 8 km 1.000 ft 190° 190° 15 kt METAR EHGG 010325Z AUTO 19015KT 140V220 8000 +DZ FEW007 SCT009 OVC010 11/10 Q0997
04:55
M
11 °C 10 km+ 1.000 ft 180° 180° 15 kt METAR EHGG 010255Z AUTO 18015KT 140V220 9999 SHRA FEW008 SCT009 BKN010 FEW015CB 11/10 Q0998
04:25
M
11 °C 8 km 1.000 ft 180° 180° 14 kt METAR EHGG 010225Z AUTO 18014KT 140V220 8000 RA FEW009 BKN010 BKN014 SCT015CB 11/10 Q0998
03:55
M
11 °C 9 km 1.100 ft 170° 170° 13 kt METAR EHGG 010155Z AUTO 17013KT 120V210 9000 RA FEW008 SCT009 BKN011 SCT015CB 11/10 Q0999
03:25
M
11 °C 10 km+ 2.800 ft 180° 180° 14 kt METAR EHGG 010125Z AUTO 18014KT 140V210 9999 SHRA FEW009 FEW015CB SCT016 BKN028 11/10 Q1000
02:55
V
11 °C 10 km+ 4.800 ft 180° 180° 14 kt METAR EHGG 010055Z AUTO 18014KT 140V220 9999 -SHRA FEW015 SCT043 BKN048 11/09 Q1000
02:25
V
11 °C 10 km+ - 170° 170° 12 kt METAR EHGG 010025Z AUTO 17012KT 140V220 9999 -RA FEW015CB 11/09 Q1001 RERA
01:55
V
11 °C 10 km+ - 180° 180° 11 kt METAR EHGG 302355Z AUTO 18011KT 140V230 9999 -RA FEW015CB 11/09 Q1002
01:25
V
11 °C 10 km+ - 190° 190° 11 kt METAR EHGG 302325Z AUTO 19011KT 150V220 9999 -RA FEW045 11/09 Q1003
00:55
V
12 °C 10 km+ - 200° 200° 11 kt METAR EHGG 302255Z AUTO 20011KT 170V240 9999 -RA FEW048 12/09 Q1003 REDZRA
00:25
V
13 °C 10 km+ 4.600 ft 190° 190° 12 kt METAR EHGG 302225Z AUTO 19012KT 150V230 9999 DZRA OVC046 13/08 Q1003

30 septembre 2022

Temps Code Temps Temp. Vue Base cloud Vent METAR/SPECI
23:55
V
13 °C 10 km+ - 180° 180° 12 kt METAR EHGG 302155Z AUTO 18012KT 150V220 9999 NSC 13/08 Q1003
23:25
V
13 °C 10 km+ - 180° 180° 11 kt METAR EHGG 302125Z AUTO 18011KT 150V210 9999 NSC 13/08 Q1003
22:55
V
13 °C 10 km+ - 180° 180° 13 kt METAR EHGG 302055Z AUTO 18013KT 150V220 9999 NSC 13/08 Q1003
22:25
V
13 °C 10 km+ - 180° 180° 11 kt METAR EHGG 302025Z AUTO 18011KT 150V210 9999 NSC 13/08 Q1004 NOSIG
21:55
V
12 °C 10 km+ - 170° 170° 10 kt METAR EHGG 301955Z AUTO 17010KT 140V210 9999 NSC 12/08 Q1004 NOSIG
21:25
V
12 °C 10 km+ - 170° 170° 9 kt METAR EHGG 301925Z AUTO 17009KT 140V200 9999 NSC 12/08 Q1005 NOSIG
20:55
V
12 °C 10 km+ - 170° 170° 8 kt METAR EHGG 301855Z AUTO 17008KT 140V200 9999 NSC 12/08 Q1005 NOSIG
20:25
V
13 °C 10 km+ - 170° 170° 8 kt METAR EHGG 301825Z AUTO 17008KT 140V200 9999 NSC 13/08 Q1006 NOSIG
19:55
V
13 °C 10 km+ - 170° 170° 7 kt METAR EHGG 301755Z AUTO 17007KT 140V200 9999 NSC 13/08 Q1006 NOSIG
19:25
V
14 °C 10 km+ - 180° 180° 8 kt METAR EHGG 301725Z AUTO 18008KT 130V220 9999 FEW036 14/08 Q1006 NOSIG
18:55
V
14 °C 10 km+ - 190° 190° 8 kt METAR EHGG 301655Z AUTO 19008KT 160V220 9999 NSC 14/08 Q1006 NOSIG
18:25
V
15 °C 10 km+ 4.300 ft 190° 190° 10 kt METAR EHGG 301625Z AUTO 19010KT 9999 SCT038 BKN043 15/08 Q1006 NOSIG
17:55
V
15 °C 10 km+ 3.900 ft 190° 190° 10 kt METAR EHGG 301555Z AUTO 19010KT 160V230 9999 BKN039 BKN044 15/08 Q1006 NOSIG
17:25
V
16 °C 10 km+ - 200° 200° 10 kt METAR EHGG 301525Z AUTO 20010KT 160V230 9999 FEW039 SCT043 16/08 Q1006 NOSIG
16:55
V
16 °C 10 km+ 4.600 ft 190° 190° 11 kt METAR EHGG 301455Z AUTO 19011KT 160V220 9999 SCT040 BKN046 16/08 Q1006 NOSIG
Données plus anciennes

Nous et des tiers suivons ton comportement sur Internet sur notre site Web à l'aide de cookies. Si tu continues, nous supposons que tu acceptes notre politique en matière de cookies. Apprendre plus